Ainsworth, NE

6:31 PM CDT on October 13, 2019 (GMT -0500)
Ainsworth Municipal

Weather History for KANW - August, 2019

Change the Weather History Date:

Friday, August 2, 2019

  Actual Average Record
Temperature  
Mean Temperature 75 °F -  
Max Temperature 83 °F 83 °F 100 °F (2005)
Min Temperature 68 °F 60 °F 50 °F (2002)
Cooling Degree Days 10    
Growing Degree Days 25 (Base 50)    
Moisture  
Dew Point 70 °F    
Average Humidity 93    
Maximum Humidity 100    
Minimum Humidity 61    
Precipitation  
Precipitation 0.14 in - - ()
Sea Level Pressure  
Sea Level Pressure 30.08 in    
Wind  
Wind Speed 7 mph (SSE)    
Max Wind Speed 16 mph    
Max Gust Speed 22 mph    
Visibility 9 miles    
Events Rain , Thunderstorm    
Averages and records for this station are not official NWS values.
T = Trace of Precipitation, MM = Missing Value Source: NWS Daily Summary

Daily Weather History Graph

Daily Weather History Graph

Search for Another Location

Airport or City:

Astronomy

Aug. 02, 2019 Rise Set
Actual Time 6:32 AM CDT 8:59 PM CDT
Civil Twilight 6:00 AM CDT 9:30 PM CDT
Nautical Twilight 5:21 AM CDT 10:10 PM CDT
Astronomical Twilight 4:36 AM CDT 10:54 PM CDT
Moon 8:14 AM CDT (8/2) 10:26 PM CDT (8/2)
Length of Visible Light 15h 29m
Length of Day
14h 26m
Waxing Crescent, 4% of the Moon is Illuminated
Aug 2
Waxing Crescent
Aug 7
First Quarter
Aug 15
Full
Aug 23
Last Quarter
Aug 30
New

Hourly Weather History & Observations

Time (CDT) Temp. Heat Index Dew Point Humidity Pressure Visibility Wind Dir Wind Speed Gust Speed Precip Events Conditions
12:15 AM 69.8 °F - 69.8 °F 100% 30.12 in 10.0 mi SE 5.8 mph - N/A   Overcast
12:35 AM 70.0 °F - 70.0 °F 100% 30.14 in 10.0 mi Calm Calm - N/A   Overcast
12:55 AM 70.3 °F - 70.3 °F 100% 30.14 in 10.0 mi SSE 3.5 mph - N/A   Overcast
1:15 AM 70.7 °F - 70.7 °F 100% 30.13 in 10.0 mi South 10.4 mph - N/A   Overcast
1:35 AM 70.7 °F - 70.7 °F 100% 30.12 in 10.0 mi South 10.4 mph - N/A   Overcast
1:55 AM 70.7 °F - 70.7 °F 100% 30.12 in 10.0 mi South 9.2 mph - N/A   Overcast
2:15 AM 70.7 °F - 70.7 °F 100% 30.11 in 10.0 mi South 10.4 mph - N/A   Overcast
2:35 AM 70.7 °F - 70.7 °F 100% 30.11 in 10.0 mi SSE 8.1 mph - N/A   Overcast
2:55 AM 70.7 °F - 70.7 °F 100% 30.11 in 10.0 mi SSE 6.9 mph - N/A   Overcast
3:15 AM 70.9 °F - 70.9 °F 100% 30.10 in 10.0 mi SSE 6.9 mph - N/A   Overcast
3:35 AM 70.7 °F - 70.7 °F 100% 30.09 in 10.0 mi SE 4.6 mph - N/A   Overcast
3:55 AM 70.2 °F - 70.2 °F 100% 30.09 in 10.0 mi Calm Calm - N/A   Overcast
4:15 AM 70.0 °F - 70.0 °F 100% 30.09 in 7.0 mi ESE 4.6 mph - N/A   Overcast
4:35 AM 70.3 °F - 70.3 °F 100% 30.10 in 7.0 mi East 3.5 mph - N/A   Overcast
4:55 AM 70.2 °F - 70.2 °F 100% 30.09 in 7.0 mi ESE 5.8 mph - N/A   Overcast
5:15 AM 70.2 °F - 70.2 °F 100% 30.09 in 10.0 mi SE 4.6 mph - N/A   Overcast
5:35 AM 70.2 °F - 70.2 °F 100% 30.09 in 10.0 mi SE 5.8 mph - N/A   Overcast
5:55 AM 70.0 °F - 70.0 °F 100% 30.08 in 10.0 mi SSE 5.8 mph - N/A Rain Light Rain
6:15 AM 70.0 °F - 70.0 °F 100% 30.08 in 7.0 mi SSE 4.6 mph - N/A Rain Light Rain
6:35 AM 69.8 °F - 69.8 °F 100% 30.08 in 5.0 mi SSE 5.8 mph - N/A   Light Drizzle
6:55 AM 69.4 °F - 69.4 °F 100% 30.08 in 3.0 mi SSE 5.8 mph - N/A   Overcast
7:15 AM 69.4 °F - 69.4 °F 100% 30.08 in 2.5 mi SSE 6.9 mph - N/A   Overcast
7:35 AM 69.4 °F - 69.4 °F 100% 30.08 in 4.0 mi South 8.1 mph - N/A   Overcast
7:55 AM 69.8 °F - 69.8 °F 100% 30.07 in 4.0 mi SSE 8.1 mph - N/A   Overcast
8:15 AM 70.3 °F - 70.3 °F 100% 30.08 in 7.0 mi South 6.9 mph - N/A   Overcast
8:35 AM 71.1 °F - 71.1 °F 100% 30.08 in 7.0 mi SSW 8.1 mph - N/A   Overcast
8:55 AM 70.9 °F - 70.9 °F 100% 30.09 in 10.0 mi SSW 5.8 mph - N/A   Overcast
9:15 AM 71.1 °F - 71.1 °F 100% 30.09 in 7.0 mi SSW 5.8 mph - N/A   Overcast
9:35 AM 71.8 °F - 71.8 °F 100% 30.08 in 10.0 mi South 5.8 mph - N/A   Overcast
9:55 AM 71.6 °F - 71.6 °F 100% 30.08 in 10.0 mi South 6.9 mph - N/A   Overcast
10:15 AM 72.3 °F - 72.3 °F 100% 30.08 in 10.0 mi South 6.9 mph - N/A   Overcast
10:35 AM 73.4 °F - 72.5 °F 97% 30.08 in 10.0 mi South 9.2 mph - N/A   Overcast
10:55 AM 73.0 °F - 72.5 °F 98% 30.08 in 10.0 mi SSW 9.2 mph - N/A   Overcast
11:15 AM 73.9 °F - 72.3 °F 95% 30.08 in 10.0 mi SSW 8.1 mph - N/A Thunderstorm Overcast
11:35 AM 74.3 °F - 72.5 °F 94% 30.08 in 10.0 mi South 8.1 mph - N/A   Overcast
11:55 AM 73.6 °F - 72.9 °F 98% 30.09 in 10.0 mi SSE 8.1 mph - N/A   Overcast
12:15 PM 73.9 °F - 72.9 °F 96% 30.09 in 10.0 mi South 5.8 mph - N/A   Overcast
12:35 PM 76.1 °F - 72.9 °F 90% 30.08 in 10.0 mi South 8.1 mph - N/A Thunderstorm Overcast
12:55 PM 76.3 °F - 72.7 °F 89% 30.08 in 10.0 mi SSE 8.1 mph - N/A   Overcast
1:15 PM 76.8 °F - 72.9 °F 88% 30.07 in 10.0 mi SSE 8.1 mph - N/A   Overcast
1:35 PM 78.4 °F - 71.1 °F 78% 30.06 in 10.0 mi South 6.9 mph - N/A   Mostly Cloudy
1:55 PM 79.0 °F - 70.9 °F 76% 30.05 in 10.0 mi South 6.9 mph - N/A   Mostly Cloudy
2:15 PM 80.8 °F 84.4 °F 70.7 °F 71% 30.04 in 10.0 mi SSW 10.4 mph 16.1 mph N/A   Mostly Cloudy
2:35 PM 82.4 °F 86.3 °F 70.2 °F 66% 30.03 in 10.0 mi SSW 10.4 mph 16.1 mph N/A Thunderstorm Overcast
2:55 PM 82.9 °F 86.0 °F 68.2 °F 61% 30.03 in 10.0 mi WNW 11.5 mph 18.4 mph N/A   Overcast
3:15 PM 75.2 °F - 68.2 °F 79% 30.04 in 10.0 mi North 16.1 mph 21.9 mph N/A Thunderstorm Overcast
3:35 PM 72.5 °F - 72.5 °F 100% 30.06 in 2.0 mi WNW 5.8 mph 9.2 mph 0.13 in Rain , Thunderstorm Heavy Thunderstorms and Rain
3:55 PM 73.0 °F - 73.0 °F 100% 30.07 in 10.0 mi NNE 11.5 mph - 0.14 in Rain , Thunderstorm Light Thunderstorms and Rain
4:15 PM 73.6 °F - 73.4 °F 99% 30.06 in 10.0 mi NE 9.2 mph - N/A   Mostly Cloudy
4:35 PM 76.8 °F - 72.0 °F 85% 30.07 in 10.0 mi NNE 11.5 mph - N/A   Mostly Cloudy
4:55 PM 76.5 °F - 72.3 °F 87% 30.05 in 10.0 mi ENE 5.8 mph - N/A   Mostly Cloudy
5:15 PM 77.9 °F - 68.9 °F 74% 30.03 in 10.0 mi NNE 5.8 mph - N/A   Clear
5:35 PM 79.0 °F - 68.2 °F 69% 30.03 in 10.0 mi North 13.8 mph 18.4 mph N/A   Clear
5:55 PM 79.0 °F - 67.1 °F 67% 30.04 in 10.0 mi North 8.1 mph 11.5 mph N/A   Clear
6:15 PM 79.3 °F - 67.5 °F 67% 30.05 in 10.0 mi NNE 5.8 mph - N/A   Clear
6:35 PM 78.8 °F - 67.3 °F 68% 30.05 in 10.0 mi NNE 6.9 mph - N/A   Clear
6:55 PM 77.9 °F - 67.6 °F 71% 30.05 in 10.0 mi NE 3.5 mph - N/A   Clear
7:15 PM 77.9 °F - 67.3 °F 70% 30.05 in 10.0 mi North 5.8 mph - N/A   Scattered Clouds
7:35 PM 77.4 °F - 67.5 °F 71% 30.04 in 10.0 mi North 6.9 mph - N/A   Scattered Clouds
7:55 PM 75.9 °F - 71.1 °F 85% 30.04 in 10.0 mi ENE 5.8 mph - N/A   Scattered Clouds
8:15 PM 74.5 °F - 73.2 °F 96% 30.05 in 10.0 mi NE 3.5 mph - N/A   Clear
8:35 PM 73.2 °F - 73.0 °F 99% 30.05 in 10.0 mi NE 5.8 mph - N/A   Clear
8:55 PM 71.4 °F - 71.4 °F 100% 30.06 in 10.0 mi ENE 4.6 mph - N/A   Clear
9:15 PM 70.0 °F - 70.0 °F 100% 30.07 in 10.0 mi NE 6.9 mph - N/A   Scattered Clouds
9:35 PM 69.6 °F - 69.6 °F 100% 30.08 in 10.0 mi East 3.5 mph - N/A   Overcast
9:55 PM 69.6 °F - 69.6 °F 100% 30.08 in 10.0 mi SE 5.8 mph - N/A   Overcast
10:15 PM 70.7 °F - 70.7 °F 100% 30.09 in 10.0 mi SSE 4.6 mph - N/A   Overcast
10:35 PM 69.3 °F - 69.3 °F 100% 30.10 in 10.0 mi SSW 3.5 mph - N/A   Mostly Cloudy
10:55 PM 69.3 °F - 69.3 °F 100% 30.10 in 10.0 mi SSW 5.8 mph - N/A   Scattered Clouds
11:15 PM 68.9 °F - 68.9 °F 100% 30.10 in 10.0 mi SW 6.9 mph - N/A   Clear
11:35 PM 68.4 °F - 68.4 °F 100% 30.10 in 10.0 mi SW 6.9 mph - N/A   Clear
11:55 PM 68.0 °F - 68.0 °F 100% 30.10 in 10.0 mi WSW 5.8 mph - N/A   Clear